Location: Arboyeti
(42.1122°N, 44.6017°E)
Time: 19:30:24
(UTC+00:00)

Exosat Rocket - Pass Details

Date: 19 April 2021
Orbit: 760 x 2515 km, 72.3° (Epoch: 17 May)

Event Time Altitude Azimuth Distance (km) Brightness Sun altitude
Rises 17:25:26 0° 336° (NNW) 4,012 8.2 -17.2°
Reaches altitude 10° 17:28:24 10° 335° (NNW) 2,836 7.3 -17.7°
Maximum altitude 17:34:37 76° 251° (WSW) 874 3.8 -18.6°
Enters shadow 17:37:37 26° 169° (S) 1,528 4.6 -19.1°
